Regional Weather Roundup
Issued by NWS Northern Indiana

Home | Current Version | Previous Version | Text Only | Print | Product List | Glossary Off
Versions: 1 2 3 4 5 6 7 8 9 10 11 12 13 14 15 16 17 18 19 20 21 22 23 24 25 26 27 28 29 30 31 32 33 34 35 36 37 38 39 40 41 42 43 44 45 46 47 48 49 50

000
ASUS43 KIWX 010310
RWRIWX

KIWX WEATHER ROUNDUP
NATIONAL WEATHER SERVICE NORTHERN INDIANA
1100 PM EDT TUE SEP 30 2014

NOTE: "FAIR" INDICATES FEW OR NO CLOUDS BELOW 12,000 FEET WITH NO
SIGNIFICANT WEATHER AND/OR OBSTRUCTIONS TO VISIBILITY.

* THESE STATIONS ARE NOT UNDER NWS QUALITY CONTROL. THEY ALSO MAY NOT
  REPORT WEATHER SUCH AS PRECIPITATION OR FOG.

INZ001>027-010400-
NORTHERN INDIANA

CITY           SKY/WX    TMP DP  RH WIND       PRES   REMARKS
GARY*          CLOUDY    56  47  72 SE6       30.04R
VALPARAISO     CLOUDY    50  45  83 NE5       30.04R
MICHIGAN CITY* CLOUDY    52  43  71 CALM      30.05R
LAPORTE*       CLOUDY    55  48  79 E3        30.04R
KNOX*          MOCLDY    48  44  85 CALM      30.03R
SOUTH BEND     CLOUDY    55  46  71 NE3       30.04
MONTICELLO*    CLEAR     49  47  93 CALM      30.02R
LOGANSPORT*    PTCLDY    48  45  87 CALM      30.03R
ROCHESTER*     MOCLDY    48  46  93 CALM      30.03R
WARSAW*        CLOUDY    54  46  76 CALM      30.03R
ANGOLA*        CLOUDY    54  48  82 E5        30.02R
FORT WAYNE     CLOUDY    55  48  77 E7        30.02F
HUNTINGTON*    CLOUDY    49  47  95 CALM      30.01S
PERU/GRISSOM   PTCLDY    47  47 100 NE6       30.02R
MARION*        PTCLDY    47  44  88 NE3       30.01S

$$
INZ028>050-010400-
CENTRAL INDIANA

CITY           SKY/WX    TMP DP  RH WIND       PRES   REMARKS
LAFAYETTE      CLEAR     51  46  83 NE8       30.01R
KOKOMO*        PTCLDY    48  43  81 CALM      30.02R
MUNCIE*        CLEAR     47  44  90 CALM      30.00S
INDIANAPOLIS   PTCLDY    56  48  74 NE13      29.98R

$$
MIZ043>046-050>051-056>058-064>065-071>073-077>080-010400-
SOUTHWEST LOWER MICHIGAN

CITY           SKY/WX    TMP DP  RH WIND       PRES   REMARKS
BATTLE CREEK   MOCLDY    53  47  79 E6        30.03S
COLDWATER*     CLOUDY    55  50  82 E8        30.02R
HILLSDALE*     CLOUDY    53  51  92 CALM      30.03R
GRAND RAPIDS   CLOUDY    54  50  86 NE6       30.04S
KALAMAZOO      CLOUDY    54  49  83 CALM      30.03S
STURGIS*       CLOUDY    54  52  94 CALM      30.03R
THREE RIVERS*  CLOUDY    55  51  85 CALM      30.04R

$$
OHZ001>008-015>018-024>025-010400-
NORTHWEST OHIO

CITY           SKY/WX    TMP DP  RH WIND       PRES   REMARKS
WAUSEON*       CLOUDY    52  50  93 NE5       30.02S
DEFIANCE       PTCLDY    54  49  83 E3        30.01S
FINDLAY        MOCLDY    55  49  80 N7        29.99S
TOLEDO EXPRESS MOCLDY    52  49  89 N5        30.01S
TOLEDO METCALF MOCLDY    54  48  80 N6        30.02S
LIMA           MOCLDY    55  48  77 CALM      30.00S

$$
AND FOR LAKE MICHIGAN COASTAL AND OPEN LAKE BUOY OBSERVATIONS

STATION/POSITION TEMP    WIND        PRES    VSBY  WAVE
                 AIR SEA DIR/SP/G                  HT/PER
                 (F)     (DEG/KT/KT) (MB)    (MI)  (FT/S)
CALUMET HARBOR    56      40/  7/ 10 1015.6S
MICHIGAN CITY     53      80/  6/  8   N/A
SAINT JOSEPH      54        CALM     1018.3R
SOUTH LAKE BUOY   56 61   60/  8/ 10 1017.4R         3/ 6
4 MI NW BRIDGMAN  56 62   80/  6/  8   N/A           2/ 2
MICHIGAN CITY     54 64  120/  8/ 12   N/A           3/ 2

$$
&&


USA.gov is the U.S. government's official web portal to all federal, state and local government web resources and services.